Location: Newark
(30.1000°N, 109.4667°E)
Time: 19:49:38
(UTC+00:00)

Altair - Visible Passes

Search period start: 21 February 2020 00:00
Search period end: 02 March 2020 00:00
Orbit: 1502 x 1682 km, 47.2° (Epoch: 21 February)

Date Brightness Start Highest point End Pass type
(mag) Time Alt. Az. Time Alt. Az. Time Alt. Az.
21 Feb 9.4 18:36:36 17° NE 18:36:36 17° NE 18:38:36 10° NE visible
21 Feb 8.6 20:34:37 27° NNW 20:36:28 28° N 20:44:43 10° NE visible
21 Feb 8.6 22:34:46 10° NW 22:43:55 40° NNE 22:53:15 10° E visible
22 Feb 9.7 18:12:40 12° NE 18:12:40 12° NE 18:13:22 10° NE visible
22 Feb 8.7 20:10:40 28° N 20:11:03 28° N 20:19:18 10° NE visible
22 Feb 8.6 22:09:34 10° NW 22:18:34 38° NNE 22:27:46 10° E visible
23 Feb 8.8 19:46:43 28° N 19:46:43 28° N 19:53:54 10° NE visible
23 Feb 8.6 21:44:44 11° NW 21:53:13 36° NNE 22:02:16 10° E visible
24 Feb 8.9 19:22:47 26° NNE 19:22:47 26° NNE 19:28:32 10° NE visible
24 Feb 8.7 21:20:48 15° NW 21:27:51 35° NNE 21:36:46 10° E visible
25 Feb 9.1 18:58:52 23° NNE 18:58:52 23° NNE 19:03:10 10° NE visible
25 Feb 8.7 20:56:52 20° NNW 21:02:29 33° NNE 21:11:16 10° ENE visible
26 Feb 9.4 18:34:58 19° NE 18:34:58 19° NE 18:37:50 10° NE visible
26 Feb 8.7 20:32:58 24° NNW 20:37:07 32° NNE 20:45:45 10° ENE visible
26 Feb 8.0 22:33:36 10° NW 22:43:28 70° NE 22:53:34 10° ESE visible
27 Feb 9.6 18:11:05 14° NE 18:11:05 14° NE 18:12:30 10° NE visible
27 Feb 8.7 20:09:06 27° NNW 20:11:44 31° NNE 20:20:15 10° ENE visible
27 Feb 8.0 22:08:26 10° NW 22:18:13 65° NE 22:28:15 10° ESE visible
28 Feb 9.2 13:20:53 10° S 13:21:38 12° S 13:21:38 12° S visible
28 Feb 8.7 19:45:15 29° N 19:46:21 30° N 19:54:44 10° ENE visible
28 Feb 8.0 21:43:17 10° NW 21:52:58 60° NE 22:02:55 10° ESE visible
29 Feb 8.9 12:56:10 10° S 12:58:40 18° SSE 12:58:40 18° SSE visible
29 Feb 8.8 19:21:29 29° NNE 19:21:29 29° NNE 19:29:14 10° ENE visible
29 Feb 8.1 21:19:30 15° NW 21:27:42 56° NNE 21:37:33 10° ESE visible
01 Mar 8.6 12:31:32 10° S 12:35:47 21° SSE 12:35:47 21° SSE visible
01 Mar 9.4 14:33:06 10° SW 14:33:52 13° SW 14:33:52 13° SW visible
01 Mar 9.0 18:57:44 26° NNE 18:57:44 26° NNE 19:03:44 10° ENE visible
01 Mar 8.1 20:55:46 21° NW 21:02:25 53° NNE 21:12:10 10° ESE visible
